Flag for Sweden Weather past 2 weeks in Kiruna, Sweden

Now
32 °F

Scattered clouds.


Feels Like: 27 °F
Forecast: 19 / 36 °F
Wind: 5 mph from Northeast

Location: Kiruna Airport

Current Time: May 3, 2015 at 5:16:03 PM

Latest Report: May 3, 2015 at 4:20 PM


Visibility: N/A

Pressure: 29.74 "Hg

Humidity: 69%

Dew point: 23 °F

Location of KirunaLocation

Historic Weather in Kiruna — Graph

°F

Kiruna temperature yesterday

Maximum temperature yesterday: 39 °F (at 12:50 PM)
Minimum temperature yesterday: 19 °F (at 4:50 AM)
Average temperature yesterday: 32 °F

Past Weeks' High & Low Weather Summary

 TemperatureHumidityPressure
High46 °F (Apr 21, 10:20 AM)100% (Apr 24, 4:50 AM)30.07 "Hg (Apr 24, 4:50 AM)
Low14 °F (Apr 25, 5:20 AM)40% (Apr 28, 5:50 PM)29.12 "Hg (Apr 23, 4:50 AM)
Average32 °F73%29.71 "Hg
* Reported Apr 18 4:20 PM — May 3 4:20 PM, Kiruna, Weather by CustomWeather, © 2015

Note: Actual official high and low records may vary slightly from our data, if they occured in-between our weather recording intervals... More about our weather records

Advertising

Kiruna weather history for previous 24 hours

 ConditionsComfort  
Time TempWeatherWind HumidityBarometerVisibility
4:20 PM
Sun, May 3
32 °FScattered clouds.5 mph69%29.74 "HgN/A
3:50 PM32 °FPartly sunny.7 mph69%29.74 "HgN/A
3:20 PM32 °FPartly sunny.8 mph69%29.74 "HgN/A
2:50 PM32 °FPartly sunny.8 mph69%29.74 "HgN/A
2:20 PM32 °FPartly sunny.8 mph69%29.74 "HgN/A
1:50 PM32 °FPartly sunny.7 mph75%29.74 "HgN/A
1:20 PM32 °FOvercast.8 mph75%29.74 "HgN/A
12:50 PM30 °FMore clouds than sun.9 mph75%29.74 "HgN/A
12:20 PM32 °FMore clouds than sun.9 mph75%29.74 "HgN/A
11:50 AM32 °FLight snow. Mostly cloudy.10 mph69%29.74 "HgN/A
11:20 AM32 °FCloudy.9 mph69%29.74 "HgN/A
10:50 AM30 °FLight snow. Cloudy.8 mph75%29.74 "Hg6 mi
10:20 AM30 °FCloudy.9 mph80%29.71 "HgN/A
9:50 AM30 °FLight snow. Cloudy.8 mph80%29.74 "HgN/A
9:20 AM30 °FChilly.9 mph75%29.74 "HgN/A
8:50 AM30 °FIce fog.9 mph75%29.71 "Hg5 mi
8:20 AM28 °FPartly sunny.9 mph80%29.74 "HgN/A
7:50 AM28 °FScattered clouds.9 mph86%29.71 "HgN/A
7:20 AM28 °FScattered clouds.6 mph86%29.74 "HgN/A
6:50 AM28 °FLight snow. Mostly cloudy.7 mph93%29.74 "HgN/A
6:20 AM27 °FLight snow. Partly sunny.7 mph100%29.74 "Hg6 mi
5:50 AM27 °FLight snow. Cloudy.7 mph100%29.74 "Hg2 mi
5:20 AM27 °FLight snow. Ice fog.8 mph100%29.74 "Hg1 mi
4:50 AM27 °FLight snow. Cloudy.10 mph100%29.74 "Hg1 mi
4:20 AM28 °FLight snow. Ice fog.7 mph93%29.71 "Hg1 mi
3:50 AM28 °FSnow flurries. Mostly cloudy.9 mph93%29.71 "Hg5 mi
3:20 AM30 °FSnow flurries. Mostly cloudy.13 mph80%29.74 "HgN/A
2:50 AM30 °FLight snow. Mostly cloudy.9 mph93%29.74 "HgN/A
2:20 AM30 °FLight snow. Overcast.7 mph86%29.74 "HgN/A
1:50 AM30 °FOvercast.10 mph86%29.74 "HgN/A
1:20 AM30 °FOvercast.8 mph93%29.74 "HgN/A
12:50 AM32 °FMostly cloudy.9 mph87%29.74 "HgN/A
12:20 AM32 °FOvercast.8 mph80%29.74 "HgN/A
11:50 PM
Sat, May 2
32 °FMostly cloudy.8 mph80%29.74 "HgN/A
11:20 PM32 °FMostly cloudy.8 mph80%29.74 "HgN/A
10:50 PM32 °FOvercast.9 mph75%29.74 "HgN/A
10:20 PM32 °FOvercast.7 mph69%29.74 "HgN/A
9:50 PM32 °FOvercast.8 mph75%29.77 "HgN/A
9:20 PM32 °FOvercast.13 mph75%29.77 "HgN/A
8:50 PM32 °FMore clouds than sun.13 mph75%29.77 "HgN/A
8:20 PM34 °FOvercast.9 mph70%29.77 "HgN/A
7:50 PM34 °FOvercast.9 mph70%29.77 "HgN/A
7:20 PM34 °FOvercast.10 mph70%29.77 "HgN/A
6:50 PM34 °FOvercast.12 mph70%29.77 "HgN/A
6:20 PM36 °FPartly sunny.15 mph65%29.77 "HgN/A
5:50 PM36 °FSunny.14 mph65%29.77 "Hg10 mi
5:20 PM36 °FSunny.13 mph65%29.77 "Hg10 mi
Weather by CustomWeather, © 2015

See weather overviewHow to use our weather pages